• In Belarus
  • List of Countries
  • For 7 days
  • Water Temperature
  • Satellite Maps
  • Weather Map
  • Weather Widgets
  • user-avatar
    Login

    Hourly Weather Salawaj

    Today, 21 April, Sunday

    Time Temperature Precipitation Wind Pressure Humidity
    00:00 +30°C° 0 mm 1 mps 738 mmHg 69%
    01:00 +29°C° 0 mm 1 mps 738 mmHg 70%
    02:00 +29°C° 0 mm 1 mps 738 mmHg 70%
    03:00 +29°C° 0 mm 1 mps 738 mmHg 69%
    04:00 +29°C° 0 mm 1 mps 738 mmHg 69%
    05:00 +30°C° 0 mm 1 mps 738 mmHg 68%
    06:00 +30°C° 0 mm 1 mps 739 mmHg 67%
    07:00 +30°C° 0 mm 0 mps 739 mmHg 62%
    08:00 +34°C° 0 mm 1 mps 739 mmHg 54%
    09:00 +37°C° 0 mm 1 mps 740 mmHg 47%
    10:00 +41°C° 0 mm 1 mps 740 mmHg 39%
    11:00 +42°C° 0 mm 1 mps 739 mmHg 35%
    12:00 +44°C° 0 mm 1 mps 739 mmHg 30%
    13:00 +44°C° 0 mm 1 mps 738 mmHg 30%
    14:00 +43°C° 0 mm 1 mps 738 mmHg 31%
    15:00 +43°C° 0 mm 1 mps 737 mmHg 32%
    16:00 +42°C° 0 mm 1 mps 737 mmHg 32%
    17:00 +39°C° 0.1 mm 1 mps 737 mmHg 40%
    18:00 +36°C° 0.1 mm 1 mps 737 mmHg 47%
    19:00 +33°C° 0 mm 1 mps 738 mmHg 57%
    20:00 +31°C° 1 mm 1 mps 738 mmHg 65%
    21:00 +30°C° 1 mm 1 mps 738 mmHg 74%
    22:00 +28°C° 1 mm 1 mps 739 mmHg 82%
    23:00 +28°C° 0 mm 1 mps 739 mmHg 83%

    Tomorrow, 22 April, Monday

    Time Temperature Precipitation Wind Pressure Humidity
    00:00 +28°C° 0 mm 1 mps 738 mmHg 83%
    01:00 +28°C° 0 mm 1 mps 738 mmHg 84%
    02:00 +27°C° 0 mm 1 mps 738 mmHg 84%
    03:00 +27°C° 0 mm 1 mps 738 mmHg 84%
    04:00 +27°C° 0 mm 1 mps 738 mmHg 83%
    05:00 +28°C° 0 mm 1 mps 738 mmHg 79%
    06:00 +29°C° 0 mm 1 mps 739 mmHg 75%
    07:00 +30°C° 0 mm 1 mps 739 mmHg 71%
    08:00 +34°C° 0 mm 1 mps 740 mmHg 59%
    09:00 +35°C° 0 mm 0 mps 740 mmHg 47%
    10:00 +39°C° 0 mm 0 mps 740 mmHg 35%
    11:00 +40°C° 0 mm 0 mps 740 mmHg 31%
    12:00 +42°C° 0 mm 0 mps 739 mmHg 27%
    13:00 +44°C° 0 mm 0 mps 739 mmHg 23%
    14:00 +42°C° 0 mm 0 mps 739 mmHg 25%
    15:00 +44°C° 0 mm 1 mps 738 mmHg 27%
    16:00 +42°C° 0 mm 1 mps 738 mmHg 29%
    17:00 +39°C° 0.3 mm 1 mps 738 mmHg 38%
    18:00 +35°C° 0.3 mm 1 mps 738 mmHg 48%
    19:00 +33°C° 0.3 mm 1 mps 738 mmHg 58%
    20:00 +32°C° 1 mm 1 mps 739 mmHg 64%
    21:00 +30°C° 1 mm 1 mps 739 mmHg 71%
    22:00 +27°C° 1 mm 0 mps 740 mmHg 78%
    23:00 +27°C° 0.1 mm 0 mps 740 mmHg 79%

    Day after tomorrow, 23 April, Tuesday

    Time Temperature Precipitation Wind Pressure Humidity
    00:00 +29°C° 0.1 mm 1 mps 740 mmHg 81%
    01:00 +28°C° 0.1 mm 1 mps 740 mmHg 82%
    02:00 +28°C° 0.1 mm 1 mps 740 mmHg 81%
    03:00 +28°C° 0.1 mm 1 mps 740 mmHg 81%
    04:00 +28°C° 0.1 mm 1 mps 739 mmHg 80%
    05:00 +29°C° 0 mm 1 mps 740 mmHg 76%
    06:00 +30°C° 0 mm 1 mps 741 mmHg 72%
    07:00 +31°C° 0 mm 1 mps 741 mmHg 68%
    08:00 +34°C° 0 mm 1 mps 741 mmHg 58%
    09:00 +37°C° 0 mm 1 mps 742 mmHg 47%
    10:00 +41°C° 0 mm 1 mps 742 mmHg 36%
    11:00 +42°C° 0 mm 1 mps 742 mmHg 35%
    12:00 +42°C° 0 mm 1 mps 741 mmHg 34%
    13:00 +42°C° 0 mm 1 mps 740 mmHg 34%
    14:00 +42°C° 0 mm 1 mps 740 mmHg 34%
    15:00 +41°C° 0 mm 1 mps 739 mmHg 34%
    16:00 +41°C° 0 mm 1 mps 738 mmHg 35%
    17:00 +39°C° 0 mm 1 mps 739 mmHg 41%
    18:00 +36°C° 0 mm 1 mps 739 mmHg 46%
    19:00 +31°C° 0 mm 0 mps 739 mmHg 52%
    20:00 +31°C° 0 mm 0 mps 740 mmHg 55%
    21:00 +32°C° 0 mm 1 mps 740 mmHg 59%
    22:00 +31°C° 0 mm 1 mps 741 mmHg 62%
    23:00 +30°C° 0 mm 1 mps 740 mmHg 63%

    24 April, Wednesday

    Time Temperature Precipitation Wind Pressure Humidity
    00:00 +30°C° 0 mm 1 mps 740 mmHg 64%
    01:00 +29°C° 0 mm 1 mps 740 mmHg 65%
    02:00 +29°C° 0 mm 1 mps 740 mmHg 66%
    03:00 +29°C° 0 mm 1 mps 740 mmHg 66%
    04:00 +28°C° 0 mm 1 mps 740 mmHg 66%
    05:00 +29°C° 0 mm 1 mps 740 mmHg 64%
    06:00 +30°C° 0 mm 1 mps 741 mmHg 61%
    07:00 +31°C° 0 mm 1 mps 741 mmHg 58%
    08:00 +35°C° 0 mm 1 mps 741 mmHg 49%
    09:00 +39°C° 0 mm 1 mps 742 mmHg 40%
    10:00 +42°C° 0 mm 1 mps 742 mmHg 31%
    11:00 +43°C° 0 mm 1 mps 741 mmHg 29%
    12:00 +44°C° 0 mm 1 mps 741 mmHg 26%
    13:00 +45°C° 0 mm 1 mps 740 mmHg 24%
    14:00 +44°C° 0 mm 1 mps 739 mmHg 25%
    15:00 +43°C° 0 mm 1 mps 739 mmHg 26%
    16:00 +43°C° 0 mm 1 mps 738 mmHg 27%
    17:00 +40°C° 0 mm 1 mps 738 mmHg 35%
    18:00 +36°C° 0 mm 1 mps 738 mmHg 43%
    19:00 +33°C° 0 mm 1 mps 739 mmHg 51%
    20:00 +32°C° 0 mm 1 mps 739 mmHg 55%
    21:00 +32°C° 0 mm 1 mps 740 mmHg 59%
    22:00 +31°C° 0 mm 1 mps 740 mmHg 64%
    23:00 +31°C° 0 mm 1 mps 740 mmHg 63%

    25 April, Thursday

    Time Temperature Precipitation Wind Pressure Humidity
    00:00 +31°C° 0 mm 1 mps 739 mmHg 63%
    01:00 +31°C° 0 mm 1 mps 739 mmHg 63%
    02:00 +30°C° 0.1 mm 1 mps 739 mmHg 65%
    03:00 +29°C° 0.1 mm 1 mps 739 mmHg 67%
    04:00 +29°C° 0.1 mm 1 mps 739 mmHg 69%
    05:00 +30°C° 0 mm 1 mps 739 mmHg 65%
    06:00 +31°C° 0 mm 1 mps 740 mmHg 61%
    07:00 +32°C° 0 mm 1 mps 741 mmHg 58%
    08:00 +35°C° 0 mm 1 mps 741 mmHg 49%
    09:00 +39°C° 0 mm 1 mps 741 mmHg 41%
    10:00 +42°C° 0 mm 1 mps 741 mmHg 32%
    11:00 +42°C° 0 mm 1 mps 741 mmHg 31%
    12:00 +43°C° 0 mm 1 mps 740 mmHg 30%
    13:00 +43°C° 0 mm 1 mps 739 mmHg 29%
    14:00 +42°C° 0 mm 1 mps 739 mmHg 33%
    15:00 +41°C° 0 mm 1 mps 738 mmHg 36%
    16:00 +39°C° 0 mm 1 mps 737 mmHg 40%
    17:00 +35°C° 0.6 mm 1 mps 738 mmHg 51%
    18:00 +33°C° 0.6 mm 1 mps 738 mmHg 62%
    19:00 +30°C° 0.6 mm 1 mps 738 mmHg 73%
    20:00 +30°C° 0 mm 1 mps 739 mmHg 74%
    21:00 +30°C° 0 mm 1 mps 739 mmHg 74%
    22:00 +30°C° 0 mm 1 mps 740 mmHg 74%
    23:00 +29°C° 0.1 mm 1 mps 740 mmHg 75%

    26 April, Friday

    Time Temperature Precipitation Wind Pressure Humidity
    00:00 +29°C° 0.1 mm 1 mps 739 mmHg 76%
    01:00 +29°C° 0.1 mm 1 mps 739 mmHg 77%
    02:00 +28°C° 0.6 mm 1 mps 739 mmHg 78%
    03:00 +28°C° 0.6 mm 1 mps 739 mmHg 79%
    04:00 +26°C° 0.6 mm 0 mps 738 mmHg 80%
    05:00 +27°C° 0.1 mm 0 mps 739 mmHg 78%
    06:00 +27°C° 0.1 mm 0 mps 739 mmHg 76%
    07:00 +28°C° 0.1 mm 0 mps 740 mmHg 74%
    08:00 +31°C° 0 mm 0 mps 740 mmHg 61%
    09:00 +35°C° 0 mm 0 mps 741 mmHg 48%
    10:00 +38°C° 0 mm 0 mps 741 mmHg 35%
    11:00 +40°C° 0 mm 0 mps 740 mmHg 32%
    12:00 +41°C° 0 mm 0 mps 740 mmHg 30%
    13:00 +45°C° 0 mm 1 mps 739 mmHg 27%
    14:00 +43°C° 0 mm 1 mps 739 mmHg 30%
    15:00 +41°C° 0 mm 1 mps 738 mmHg 33%
    16:00 +40°C° 0 mm 1 mps 738 mmHg 36%
    17:00 +37°C° 0 mm 1 mps 738 mmHg 41%
    18:00 +35°C° 0 mm 1 mps 738 mmHg 45%
    19:00 +33°C° 0 mm 1 mps 738 mmHg 50%
    20:00 +32°C° 0.1 mm 1 mps 739 mmHg 54%
    21:00 +32°C° 0.1 mm 1 mps 740 mmHg 58%
    22:00 +29°C° 0.1 mm 0 mps 740 mmHg 62%
    23:00 +28°C° 0.4 mm 0 mps 740 mmHg 68%
    Show more